Вернуться в каталог

SL-16 DEB

АктивенLEO
NORAD 22367·DEBRIS·🇷🇺 Russia

Запущен Dec 25, 1992 с Baikonur Cosmodrome

Loading…

Ближайшие Пролёты (ближайшие 24 часа)

TLE

СвежийSource: Space-Track

Эпоха: Sep 13, 2026, 23:21 UTC

1 22367U 92093BG  26256.97322652  .00000009  00000-0  43726-4 0  9995
2 22367  70.8997  81.7948 0188805 265.1012 249.7710 13.83434741700359

Отслеживайте SL-16 DEB в реальном времени с AllMySat

Download on the App Store